Regional Weather Roundup
Issued by NWS

Home | Current Version | Previous Version | Text Only | Print | Product List | Glossary Off
Versions: 1 2 3 4 5 6 7 8 9 10 11 12 13 14 15 16 17 18 19 20 21 22 23 24 25 26 27 28 29 30 31 32 33 34 35 36 37 38 39 40 41 42 43 44 45 46 47 48 49 50

000
ASUS43 KOAX 240510
RWRNE

WEATHER ROUNDUP FOR NEBRASKA
NATIONAL WEATHER SERVICE OMAHA NE
1200 AM CDT THU JUL 24 2014

NOTES: SATELLITE DATA IS BEING USED TO AUGMENT CLOUD COVER ABOVE
       12000 FEET.
       "FAIR" INDICATES FEW OR NO CLOUDS BELOW 12,000 FEET WITH NO
       SIGNIFICANT WEATHER AND/OR OBSTRUCTIONS TO VISIBILITY.

  * THESE STATIONS DO NOT REPORT WEATHER SUCH AS RAIN...SNOW OR FOG.

NEZ001>004-019>022-054>056-240600-
NEBRASKA PANHANDLE

CITY           SKY/WX    TMP DP  RH WIND       PRES   REMARKS
SCOTTSBLUFF    CLEAR     74  65  73 E10       30.08F
ALLIANCE       CLEAR     72  64  76 SE24      30.10F
CHADRON        CLEAR     78  65  63 S24G30    30.00F
KIMBALL        PTCLDY    67  50  55 S6        30.18S
SIDNEY         CLEAR     73  62  68 SE9       30.17F
$$

NEZ057>060-069>072-079>082-240600-
SOUTHWEST NEBRASKA

CITY           SKY/WX    TMP DP  RH WIND       PRES   REMARKS
NORTH PLATTE   CLEAR     66  62  87 E8        30.15F
IMPERIAL       CLEAR     69  64  84 SE14      30.16F
LEXINGTON      CLEAR     68  62  79 SE9       30.17S
MCCOOK         CLEAR     70  63  78 E9        30.15F
OGALLALA       CLEAR     68  63  84 SE7       30.16S
$$

NEZ005>010-023>029-035>040-094-240600-
NORTH CENTRAL NEBRASKA

CITY           SKY/WX    TMP DP  RH WIND       PRES   REMARKS
VALENTINE      PTCLDY    72  58  61 SE14      30.12S
AINSWORTH      PTCLDY    67  58  72 SE12      30.15S
BROKEN BOW     PTCLDY    67  62  84 SE8       30.16F
O`NEILL        CLEAR     68  58  70 SE10      30.17S
ORD            CLEAR     65  61  87 E5        30.15F
THEDFORD       PTCLDY    69  61  75 SE9       30.15F
$$

NEZ041-046>049-061>064-073>077-083>087-240600-
SOUTH CENTRAL NEBRASKA

CITY           SKY/WX    TMP DP  RH WIND       PRES   REMARKS
GRAND ISLAND   CLEAR     67  61  81 SE5       30.17F
AURORA         CLEAR     65  64  93 E6        30.18S
HASTINGS       CLEAR     72  58  61 SE7       30.17S
HEBRON         CLEAR     66  60  81 CALM      30.16F
HOLDREGE       CLEAR     67  61  81 SE8       30.16F
KEARNEY *      PTCLDY    66  61  82 SE6       30.17S
YORK           PTCLDY    66  63  88 E6        30.18S
$$

NEZ011>018-030>034-042>045-240600-
NORTHEAST NEBRASKA

CITY           SKY/WX    TMP DP  RH WIND       PRES   REMARKS
NORFOLK        CLEAR     66  60  81 SE7       30.17F
ALBION         CLEAR     64  59  84 CALM      30.18S
BLAIR          CLEAR     68  62  80 E6        30.17S
COLUMBUS *     CLEAR     64  57  77 E5        30.17F
FREMONT        CLEAR     73  61  67 E3        30.17S
TEKAMAH        CLEAR     66  60  81 CALM      30.16S
WAYNE          CLEAR     64  61  88 CALM      30.17S
$$

NEZ050>053-065>068-078-088>093-240600-
SOUTHEAST NEBRASKA

CITY           SKY/WX    TMP DP  RH WIND       PRES   REMARKS
LINCOLN        CLEAR     72  60  66 CALM      30.17F
OMAHA EPPLEY   CLEAR     74  62  66 SE6       30.17S
BEATRICE       CLEAR     68  62  81 CALM      30.17R
FALLS CITY     CLEAR     68  64  87 E3        30.15R
NEBRASKA CITY  CLEAR     69  63  80 E5        30.17R
PLATTSMOUTH    CLEAR     70  62  76 E5        30.17S
$$

NEZ044-045-051>053-067-240600-
OMAHA AREA

CITY           SKY/WX    TMP DP  RH WIND       PRES   REMARKS
OMAHA EPPLEY   CLEAR     74  62  66 SE6       30.17S
BLAIR          CLEAR     68  62  80 E6        30.17S
FREMONT        CLEAR     73  61  67 E3        30.17S
MILLARD        CLEAR     73  63  71 SE3       30.16S
OFFUTT AFB     CLEAR     67  64  93 CALM      30.16S
PLATTSMOUTH    CLEAR     70  62  76 E5        30.17S
WAHOO          FAIR      67  62  83 CALM      30.17R
$$



USA.gov is the U.S. government's official web portal to all federal, state and local government web resources and services.